Tracking 29933 objects as of 2-Dec-2024
HD Live streaming from Space Station
objects crossing your sky now

STARLINK-31164

Track STARLINK-31164 now!
10-day predictions
STARLINK-31164 is classified as:


NORAD ID: 58733
Int'l Code: 2024-005F
Perigee: 565.2 km
Apogee: 567.2 km
Inclination: 43.0 °
Period: 95.8 minutes
Semi major axis: 6937 km
RCS: Unknown
Launch date: January 7, 2024
Source: United States (US)
Launch site: AIR FORCE EASTERN TEST RANGE (AFETR)
Your satellite tracking list
Your tracking list is empty




NASA's NSSDC Master Catalog

Two Line Element Set (TLE):
1 58733U 24005F   24337.05027956  .00001403  00000-0  11894-3 0  9994
2 58733  43.0018 215.9038 0001454 269.2856  90.7820 15.02530498 50833
Source of the keplerian elements: AFSPC